Погода в Онгурене

Россия / Иркутская область     53°37′55″N   107°35′31″E
темп.,
°C
ветер,
м/с
пор.,
м/с
влажн.,
%
обл.,
%
осадки,
мм/ч
давл.,
гПа
погр.,
м
24 мая, вт
вт2423:00+4зсз22785 0.0 102126
02:00+4сз217951 0.0 102317
05:00+3сз11826 0.0 102516
08:00+11сз11520 0.0 1025401
11:00+16з11364 0.0 10241646
14:00+17юв22344 0.0 10231983
17:00+16юв22375 0.0 10231322
20:00+11юв11591 0.0 102420
25 мая, ср
ср2523:00+7з01620 0.0 102511
02:00+7юв016246 0.0 102510
05:00+7сз1161100 0.0 102410
08:00+14зсз014349 0.0 1022284
11:00+19сз02305 0.0 10202237
14:00+19юв232824 0.0 10172557
17:00+18ююв23314 0.0 10151404
20:00+13юв11510 0.0 101514
26 мая, чт
чт2623:00+9зюз01540 0.0 101412
02:00+9з01500 0.0 101211
05:00+9зсз114851 0.0 101011
08:00+16з273352 0.0 1007508
11:00+19зсз593096 0.0 10052242
14:00+20сз7113376 0.0 10023011
17:00+15сз612564 0.5 10031778
20:00+11ссз411684 0.6 10051148
27 мая, пт
пт2723:00+7сз411862 0.0 1007593
02:00+4ссз4109267 0.0 1008615
05:00+4ссз5118090 0.0 1008880
08:00+6ссз510595 0.0 10081121
11:00+10ссз693824 0.0 10071925
14:00+12ссз582996 0.0 10052797
17:00+12с572994 0.0 10052245
20:00+8с374210 0.0 1006847
28 мая, сб
сб2823:00+2сз22662 0.0 100936
02:00−1сз23815 0.0 101063
05:00−3сз23936 0.0 101176
08:00+2ссз476559 0.0 1011818
11:00+6ссз694429 0.0 10101607
14:00+9с683399 0.0 10092548
17:00+9ссз7933100 0.0 10092588
20:00+6ссз610422 0.0 10111605